Location: Unspecified
(0.0000°N, 0.0000°E)
Time: 16:19:09
(UTC+00:00)

Altair - Pass Details

Date: 28 November 2019
Orbit: 1502 x 1682 km, 47.2° (Epoch: 12 December)

Event Time Altitude Azimuth Distance (km) Brightness Sun altitude
Rises 19:27:31 0° 198° (SSW) 4,894 10.7 -23.1°
Reaches altitude 10° 19:31:28 10° 186° (S) 3,882 9.9 -24.0°
Maximum altitude 19:39:18 26° 133° (SE) 2,751 8.6 -25.8°
Enters shadow 19:41:05 25° 116° (ESE) 2,807 8.5 -26.2°
Drops below altitude 10° 19:46:52 10° 80° (E) 3,762 - -27.5°
Sets 19:50:34 0° 68° (ENE) 4,716 - -28.3°
